Regional Weather Roundup
Issued by NWS Goodland, KS

Home | Current Version | Previous Version | Graphics & Text | Print | Product List | Glossary On
Versions: 1 2 3 4 5 6 7 8 9 10 11 12 13 14 15 16 17 18 19 20 21 22 23 24 25 26 27 28 29 30 31 32 33 34 35 36 37 38 39 40 41 42 43 44 45 46 47 48 49 50
000
ASUS43 KGLD 251259
RWRGLD

GOODLAND FORECAST AREA HOURLY WEATHER ROUNDUP
NATIONAL WEATHER SERVICE GOODLAND KS
600 AM MST SUN JAN 25 2015

...OFFICIAL OBSERVATIONS...

CITY           SKY/WX    TMP DP  RH WIND       PRES   REMARKS
GOODLAND KS    PTCLDY    39  23  52 NW25G32   30.07R
HILL CITY KS   CLEAR     40  26  57 NW20G29   30.02R
IMPERIAL NEB   CLEAR     35  23  61 NW14      30.07R
MCCOOK NEB     CLEAR     38  25  59 NW18G32   30.03R
AKRON CO       CLEAR     31  26  82 N13       30.10R
BURLINGTON CO  CLEAR     33  25  72 NW13      30.10R
LIMON CO       CLEAR     30  25  81 N12       30.14R
$$

...UNOFFICIAL OBSERVATIONS...

CITY           SKY/WX    TMP DP  RH WIND       PRES   REMARKS
COLBY KS       CLEAR     37  28  70 NW17      30.06R
GOVE KS          N/A     33  32  96 MISG        N/A
NORTON KS      CLEAR     34  25  69 NW14      30.01R
SHARON SPRINGS   N/A     37  26  64 NW16G23     N/A
KIT CARSON CO    N/A     32  24  71 MISG        N/A
YUMA CO          N/A     34  25  70 NW13        N/A
$$


USA.gov is the U.S. government's official web portal to all federal, state and local government web resources and services.